DAL1156 KDTW-KHPN

Flight info

Callsign DAL1156
Flight time 1h 14m
Altitude 35000
Route LNCON DCT JHW DCT MEMMS DCT DANZI
Aircraft B738/M-VGDW/C

Departure

Time 2026-05-05 18:16
Airport Detroit Metropolitan Wayne County Airport (KDTW)

Arrival

Time 2026-05-05 19:30
Airport Westchester County Airport (KHPN)
Time Latitude Longitude Altitude Speed Heading
2026-05-05 17:47 42.21478 -83.35373 640 ft 0 kts 180°
2026-05-05 17:55 42.21481 -83.35373 640 ft 0 kts 180°
2026-05-05 17:55 42.21495 -83.35373 640 ft 2 kts 179°
2026-05-05 17:56 42.21510 -83.35374 640 ft 2 kts 180°
2026-05-05 17:56 42.21525 -83.35374 640 ft 2 kts 179°
2026-05-05 17:56 42.21530 -83.35374 640 ft 0 kts 180°
2026-05-05 17:58 42.21534 -83.35374 640 ft 0 kts 180°
2026-05-05 17:58 42.21541 -83.35374 640 ft 0 kts 180°
2026-05-05 18:00 42.21464 -83.35289 639 ft 0 kts 264°
2026-05-05 18:09 42.21466 -83.35273 639 ft 2 kts 264°
2026-05-05 18:09 42.21467 -83.35254 639 ft 2 kts 264°
2026-05-05 18:09 42.21469 -83.35234 639 ft 2 kts 264°
2026-05-05 18:10 42.21469 -83.35223 639 ft 0 kts 264°
2026-05-05 18:11 42.21470 -83.35224 639 ft 0 kts 287°
2026-05-05 18:11 42.21473 -83.35226 639 ft 0 kts 324°
2026-05-05 18:12 42.21478 -83.35225 639 ft 1 kts 14°
2026-05-05 18:12 42.21501 -83.35218 639 ft 5 kts 11°
2026-05-05 18:12 42.21545 -83.35181 639 ft 9 kts 68°
2026-05-05 18:12 42.21566 -83.35072 639 ft 14 kts 55°
2026-05-05 18:13 42.21648 -83.34965 639 ft 18 kts 42°
2026-05-05 18:13 42.21758 -83.34827 639 ft 23 kts 43°
2026-05-05 18:13 42.21836 -83.34639 639 ft 23 kts 87°
2026-05-05 18:13 42.21909 -83.34462 639 ft 23 kts 28°
2026-05-05 18:14 42.22051 -83.34359 639 ft 23 kts 28°
2026-05-05 18:14 42.22192 -83.34257 639 ft 23 kts 29°
2026-05-05 18:14 42.22332 -83.34153 639 ft 23 kts 29°
2026-05-05 18:14 42.22478 -83.34046 637 ft 24 kts 28°
2026-05-05 18:15 42.22626 -83.33939 636 ft 24 kts 28°
2026-05-05 18:15 42.22774 -83.33824 636 ft 24 kts 28°
2026-05-05 18:15 42.22856 -83.33716 636 ft 15 kts 105°
2026-05-05 18:15 42.22786 -83.33649 636 ft 14 kts 202°
2026-05-05 18:16 42.22533 -83.33837 636 ft 88 kts 210°
2026-05-05 18:16 42.21725 -83.34424 715 ft 165 kts 208°
2026-05-05 18:16 42.20580 -83.35187 1386 ft 197 kts 209°
2026-05-05 18:16 42.19361 -83.36008 2539 ft 213 kts 201°
2026-05-05 18:17 42.17861 -83.36123 3564 ft 230 kts 167°
2026-05-05 18:17 42.16295 -83.35511 4595 ft 245 kts 164°
2026-05-05 18:17 42.14630 -83.34933 5644 ft 258 kts 167°
2026-05-05 18:17 42.12906 -83.34335 6840 ft 263 kts 159°
2026-05-05 18:18 42.11279 -83.33076 7398 ft 286 kts 136°
2026-05-05 18:18 42.10107 -83.30731 7406 ft 323 kts 109°
2026-05-05 18:18 42.09721 -83.27580 7370 ft 350 kts 89°
2026-05-05 18:18 42.09830 -83.24393 7378 ft 350 kts 84°
2026-05-05 18:19 42.10112 -83.21094 8438 ft 360 kts 81°
2026-05-05 18:19 42.10439 -83.17807 9913 ft 358 kts 81°
2026-05-05 18:19 42.10759 -83.14524 11416 ft 354 kts 82°
2026-05-05 18:19 42.11061 -83.11317 12792 ft 352 kts 82°
2026-05-05 18:20 42.11362 -83.08048 13882 ft 358 kts 82°
2026-05-05 18:20 42.11663 -83.04741 14910 ft 365 kts 82°
2026-05-05 18:20 42.11972 -83.01327 15932 ft 372 kts 82°
2026-05-05 18:20 42.12280 -82.97894 16889 ft 378 kts 82°
2026-05-05 18:21 42.12598 -82.94335 17830 ft 385 kts 83°
2026-05-05 18:21 42.12914 -82.90774 18749 ft 391 kts 83°
2026-05-05 18:21 42.13237 -82.87130 19611 ft 398 kts 83°
2026-05-05 18:21 42.13565 -82.83411 20416 ft 406 kts 83°
2026-05-05 18:22 42.13897 -82.79629 21258 ft 412 kts 83°
2026-05-05 18:22 42.14232 -82.75798 22025 ft 419 kts 83°
2026-05-05 18:22 42.14572 -82.71903 22833 ft 424 kts 84°
2026-05-05 18:22 42.14916 -82.67936 23555 ft 431 kts 84°
2026-05-05 18:23 42.15263 -82.63923 24276 ft 436 kts 84°
2026-05-05 18:23 42.15611 -82.59868 25010 ft 441 kts 84°
2026-05-05 18:23 42.15967 -82.55718 25723 ft 446 kts 84°
2026-05-05 18:23 42.16319 -82.51582 26385 ft 451 kts 84°
2026-05-05 18:24 42.16674 -82.47403 27028 ft 456 kts 84°
2026-05-05 18:24 42.17035 -82.43131 27665 ft 461 kts 84°
2026-05-05 18:24 42.17395 -82.38848 28268 ft 466 kts 84°
2026-05-05 18:24 42.17760 -82.34494 28884 ft 470 kts 85°
2026-05-05 18:25 42.18126 -82.30108 29461 ft 474 kts 85°
2026-05-05 18:25 42.18367 -82.27196 29803 ft 478 kts 85°
2026-05-05 18:25 42.18858 -82.21267 30913 ft 474 kts 86°
2026-05-05 18:25 42.19214 -82.16998 32423 ft 453 kts 86°
2026-05-05 18:26 42.19549 -82.12975 33952 ft 431 kts 88°
2026-05-05 18:26 42.19871 -82.09086 35185 ft 415 kts 88°
2026-05-05 18:26 42.20187 -82.05169 35343 ft 419 kts 88°
2026-05-05 18:27 42.20804 -81.97454 35365 ft 410 kts 88°
2026-05-05 18:27 42.21408 -81.89882 35365 ft 408 kts 88°
2026-05-05 18:28 42.22308 -81.78470 35363 ft 409 kts 88°
2026-05-05 18:28 42.22899 -81.70901 35364 ft 410 kts 88°
2026-05-05 18:29 42.23490 -81.63288 35363 ft 409 kts 88°
2026-05-05 18:29 42.24082 -81.55578 35365 ft 418 kts 88°
2026-05-05 18:30 42.24414 -81.47765 35364 ft 418 kts 94°
2026-05-05 18:30 42.24278 -81.39973 35364 ft 416 kts 94°
2026-05-05 18:31 42.24133 -81.32170 35363 ft 416 kts 95°
2026-05-05 18:31 42.24005 -81.24431 35363 ft 417 kts 95°
2026-05-05 18:32 42.23879 -81.16609 35363 ft 415 kts 95°
2026-05-05 18:32 42.23751 -81.08839 35363 ft 416 kts 94°
2026-05-05 18:33 42.23622 -81.01087 35363 ft 415 kts 95°
2026-05-05 18:33 42.23486 -80.93279 35363 ft 417 kts 95°
2026-05-05 18:34 42.23345 -80.85480 35364 ft 416 kts 95°
2026-05-05 18:34 42.23200 -80.77707 35363 ft 416 kts 95°
2026-05-05 18:35 42.23049 -80.69930 35363 ft 417 kts 95°
2026-05-05 18:35 42.22893 -80.62148 35363 ft 416 kts 95°
2026-05-05 18:36 42.22733 -80.54397 35363 ft 415 kts 95°
2026-05-05 18:36 42.22566 -80.46593 35363 ft 417 kts 94°
2026-05-05 18:37 42.22395 -80.38825 35363 ft 416 kts 95°
2026-05-05 18:37 42.22219 -80.31067 35363 ft 415 kts 95°
2026-05-05 18:38 42.22037 -80.23308 35363 ft 416 kts 95°
2026-05-05 18:38 42.21849 -80.15525 35363 ft 416 kts 95°
2026-05-05 18:39 42.21656 -80.07760 35364 ft 416 kts 95°
2026-05-05 18:39 42.21458 -79.99970 35364 ft 416 kts 95°
2026-05-05 18:40 42.21262 -79.92213 35364 ft 415 kts 95°
2026-05-05 18:40 42.21056 -79.84421 35365 ft 416 kts 95°
2026-05-05 18:41 42.20839 -79.76696 35365 ft 416 kts 95°
2026-05-05 18:41 42.20618 -79.68921 35366 ft 416 kts 95°
2026-05-05 18:42 42.20393 -79.61137 35367 ft 416 kts 95°
2026-05-05 18:42 42.20163 -79.53388 35368 ft 416 kts 95°
2026-05-05 18:43 42.19928 -79.45610 35369 ft 415 kts 95°
2026-05-05 18:43 42.19688 -79.37837 35369 ft 416 kts 95°
2026-05-05 18:44 42.19443 -79.30080 35370 ft 416 kts 96°
2026-05-05 18:44 42.19195 -79.22363 35370 ft 416 kts 96°
2026-05-05 18:45 42.19020 -79.14568 35369 ft 417 kts 92°
2026-05-05 18:45 42.19607 -79.06801 35370 ft 421 kts 85°
2026-05-05 18:46 42.20552 -78.99027 35370 ft 423 kts 84°
2026-05-05 18:46 42.21548 -78.91254 35370 ft 421 kts 84°
2026-05-05 18:47 42.22533 -78.83493 35371 ft 423 kts 84°
2026-05-05 18:47 42.23511 -78.75741 35372 ft 421 kts 84°
2026-05-05 18:48 42.24490 -78.67945 35372 ft 422 kts 84°
2026-05-05 18:48 42.25460 -78.60180 35372 ft 422 kts 84°
2026-05-05 18:49 42.26424 -78.52403 35372 ft 421 kts 84°
2026-05-05 18:49 42.27380 -78.44581 35371 ft 422 kts 84°
2026-05-05 18:50 42.28335 -78.36822 35371 ft 422 kts 84°
2026-05-05 18:50 42.29288 -78.29035 35371 ft 422 kts 85°
2026-05-05 18:51 42.30229 -78.21284 35370 ft 421 kts 85°
2026-05-05 18:51 42.31174 -78.13465 35371 ft 421 kts 85°
2026-05-05 18:52 42.32104 -78.05703 35371 ft 422 kts 85°
2026-05-05 18:52 42.33037 -77.97889 35371 ft 422 kts 85°
2026-05-05 18:53 42.33960 -77.90105 35371 ft 421 kts 85°
2026-05-05 18:53 42.34878 -77.82304 35371 ft 422 kts 85°
2026-05-05 18:54 42.35786 -77.74549 35371 ft 421 kts 85°
2026-05-05 18:54 42.36695 -77.66745 35371 ft 421 kts 85°
2026-05-05 18:55 42.37594 -77.58964 35370 ft 422 kts 85°
2026-05-05 18:55 42.38492 -77.51154 35369 ft 420 kts 85°
2026-05-05 18:56 42.39386 -77.43330 35369 ft 421 kts 85°
2026-05-05 18:56 42.40270 -77.35532 35369 ft 421 kts 85°
2026-05-05 18:57 42.41149 -77.27740 35370 ft 421 kts 85°
2026-05-05 18:57 42.42027 -77.19913 35370 ft 421 kts 86°
2026-05-05 18:58 42.42894 -77.12128 35370 ft 421 kts 86°
2026-05-05 18:58 42.43755 -77.04339 35370 ft 421 kts 85°
2026-05-05 18:59 42.44616 -76.96514 35370 ft 421 kts 85°
2026-05-05 18:59 42.45468 -76.88705 35370 ft 421 kts 86°
2026-05-05 19:00 42.46314 -76.80914 35369 ft 421 kts 86°
2026-05-05 19:00 42.47156 -76.73104 35369 ft 421 kts 86°
2026-05-05 19:01 42.47995 -76.65265 35368 ft 421 kts 86°
2026-05-05 19:01 42.48827 -76.57443 35367 ft 421 kts 85°
2026-05-05 19:02 42.49645 -76.49676 35365 ft 421 kts 85°
2026-05-05 19:02 42.50467 -76.41837 35366 ft 420 kts 86°
2026-05-05 19:03 42.51112 -76.33993 35367 ft 418 kts 92°
2026-05-05 19:03 42.50498 -76.26264 35370 ft 412 kts 106°
2026-05-05 19:04 42.48819 -76.18901 35369 ft 411 kts 110°
2026-05-05 19:04 42.47022 -76.11578 35369 ft 411 kts 110°
2026-05-05 19:05 42.45229 -76.04285 35369 ft 411 kts 110°
2026-05-05 19:05 42.43420 -75.96957 35369 ft 411 kts 110°
2026-05-05 19:06 42.41611 -75.89653 35369 ft 410 kts 110°
2026-05-05 19:06 42.39805 -75.82381 35368 ft 411 kts 110°
2026-05-05 19:07 42.37985 -75.75082 35368 ft 411 kts 110°
2026-05-05 19:07 42.36152 -75.67754 35368 ft 411 kts 110°
2026-05-05 19:08 42.34330 -75.60495 35368 ft 411 kts 110°
2026-05-05 19:08 42.32496 -75.53205 35368 ft 411 kts 110°
2026-05-05 19:09 42.30653 -75.45907 35368 ft 410 kts 110°
2026-05-05 19:09 42.28823 -75.38683 35368 ft 410 kts 110°
2026-05-05 19:10 42.26964 -75.31369 35370 ft 411 kts 110°
2026-05-05 19:10 42.25115 -75.24112 35371 ft 411 kts 110°
2026-05-05 19:11 42.23257 -75.16841 35372 ft 410 kts 110°
2026-05-05 19:11 42.21434 -75.09723 35213 ft 392 kts 111°
2026-05-05 19:12 42.20551 -75.06279 34739 ft 386 kts 111°
2026-05-05 19:12 42.19687 -75.02918 34137 ft 383 kts 111°
2026-05-05 19:12 42.18813 -74.99536 33457 ft 382 kts 111°
2026-05-05 19:12 42.17850 -74.96228 32716 ft 386 kts 116°
2026-05-05 19:13 42.16658 -74.92992 31956 ft 390 kts 120°
2026-05-05 19:13 42.15356 -74.89795 31188 ft 394 kts 122°
2026-05-05 19:13 42.14008 -74.86569 30393 ft 399 kts 122°
2026-05-05 19:13 42.12638 -74.83305 29593 ft 404 kts 122°
2026-05-05 19:14 42.11256 -74.80016 28767 ft 412 kts 122°
2026-05-05 19:14 42.09842 -74.76652 28015 ft 417 kts 122°
2026-05-05 19:14 42.08413 -74.73251 27435 ft 416 kts 122°
2026-05-05 19:14 42.07001 -74.69891 26814 ft 417 kts 122°
2026-05-05 19:15 42.05586 -74.66527 26173 ft 418 kts 122°
2026-05-05 19:15 42.04158 -74.63143 25518 ft 418 kts 122°
2026-05-05 19:15 42.02712 -74.59718 24846 ft 419 kts 121°
2026-05-05 19:15 42.01293 -74.56358 24182 ft 420 kts 121°
2026-05-05 19:16 41.99844 -74.52934 23503 ft 420 kts 121°
2026-05-05 19:16 41.98410 -74.49547 22823 ft 420 kts 121°
2026-05-05 19:16 41.96977 -74.46166 22146 ft 420 kts 121°
2026-05-05 19:16 41.95538 -74.42777 21462 ft 419 kts 121°
2026-05-05 19:17 41.94105 -74.39407 20778 ft 418 kts 120°
2026-05-05 19:17 41.92667 -74.36025 20084 ft 417 kts 120°
2026-05-05 19:17 41.91228 -74.32646 19386 ft 416 kts 121°
2026-05-05 19:17 41.89796 -74.29286 18705 ft 414 kts 120°
2026-05-05 19:18 41.88388 -74.25986 18034 ft 412 kts 120°
2026-05-05 19:18 41.86847 -74.22765 17399 ft 409 kts 127°
2026-05-05 19:18 41.84943 -74.19991 16730 ft 406 kts 141°
2026-05-05 19:18 41.82584 -74.18031 16053 ft 401 kts 154°
2026-05-05 19:19 41.80043 -74.16511 15351 ft 394 kts 157°
2026-05-05 19:19 41.77572 -74.15117 14678 ft 388 kts 158°
2026-05-05 19:19 41.75089 -74.13728 14011 ft 382 kts 157°
2026-05-05 19:19 41.72655 -74.12365 13354 ft 376 kts 157°
2026-05-05 19:20 41.70279 -74.11032 12707 ft 371 kts 157°
2026-05-05 19:20 41.67919 -74.09706 12064 ft 366 kts 157°
2026-05-05 19:20 41.65612 -74.08409 11491 ft 359 kts 157°
2026-05-05 19:20 41.63328 -74.07125 11158 ft 346 kts 157°
2026-05-05 19:21 41.61160 -74.05907 11008 ft 329 kts 157°
2026-05-05 19:21 41.59108 -74.04755 10874 ft 314 kts 157°
2026-05-05 19:21 41.57147 -74.03653 10733 ft 301 kts 157°
2026-05-05 19:21 41.55250 -74.02589 10528 ft 291 kts 157°
2026-05-05 19:22 41.53388 -74.01543 10147 ft 289 kts 157°
2026-05-05 19:22 41.51543 -74.00509 9768 ft 287 kts 157°
2026-05-05 19:22 41.49737 -73.99498 9409 ft 284 kts 156°
2026-05-05 19:22 41.47922 -73.98483 9051 ft 281 kts 156°
2026-05-05 19:23 41.46119 -73.97472 8695 ft 279 kts 156°
2026-05-05 19:23 41.44363 -73.96463 8347 ft 276 kts 155°
2026-05-05 19:23 41.42616 -73.95423 7996 ft 274 kts 155°
2026-05-05 19:23 41.40885 -73.94355 7648 ft 271 kts 154°
2026-05-05 19:24 41.39183 -73.93290 7323 ft 269 kts 154°
2026-05-05 19:24 41.37500 -73.92231 7265 ft 270 kts 154°
2026-05-05 19:24 41.35783 -73.91145 6921 ft 280 kts 153°
2026-05-05 19:24 41.34027 -73.90024 6472 ft 280 kts 153°
2026-05-05 19:25 41.32288 -73.88905 6048 ft 280 kts 153°
2026-05-05 19:25 41.30546 -73.87772 5644 ft 278 kts 153°
2026-05-05 19:25 41.28803 -73.86626 5246 ft 276 kts 153°
2026-05-05 19:25 41.27111 -73.85497 4866 ft 269 kts 152°
2026-05-05 19:26 41.25492 -73.84404 4490 ft 260 kts 152°
2026-05-05 19:26 41.23912 -73.83337 4134 ft 250 kts 154°
2026-05-05 19:26 41.22350 -73.82404 3791 ft 243 kts 155°
2026-05-05 19:26 41.20842 -73.81427 3436 ft 235 kts 152°
2026-05-05 19:27 41.19472 -73.80436 3149 ft 215 kts 149°
2026-05-05 19:27 41.18245 -73.79493 2849 ft 195 kts 149°
2026-05-05 19:27 41.17128 -73.78640 2610 ft 177 kts 149°
2026-05-05 19:27 41.16109 -73.77859 2420 ft 159 kts 149°
2026-05-05 19:28 41.15165 -73.77138 2149 ft 152 kts 149°
2026-05-05 19:28 41.14277 -73.76459 1963 ft 144 kts 149°
2026-05-05 19:28 41.13428 -73.75810 1766 ft 137 kts 149°
2026-05-05 19:28 41.12604 -73.75180 1601 ft 137 kts 149°
2026-05-05 19:29 41.11794 -73.74561 1419 ft 134 kts 149°
2026-05-05 19:29 41.10971 -73.73934 1262 ft 137 kts 149°
2026-05-05 19:29 41.10144 -73.73309 1134 ft 136 kts 149°
2026-05-05 19:29 41.09309 -73.72680 937 ft 138 kts 150°
2026-05-05 19:30 41.08497 -73.72040 678 ft 134 kts 150°
2026-05-05 19:30 41.07706 -73.71452 488 ft 125 kts 149°
2026-05-05 19:30 41.07014 -73.70909 412 ft 96 kts 148°
2026-05-05 19:30 41.06645 -73.70634 400 ft 35 kts 151°
2026-05-05 19:31 41.06507 -73.70410 392 ft 19 kts 99°
2026-05-05 19:31 41.06579 -73.70365 395 ft 14 kts 331°
2026-05-05 19:31 41.06658 -73.70427 398 ft 12 kts 328°
2026-05-05 19:31 41.06718 -73.70480 402 ft 8 kts 326°
2026-05-05 19:32 41.06757 -73.70483 404 ft 1 kts 37°
2026-05-05 19:32 41.06764 -73.70455 404 ft 3 kts 65°
2026-05-05 19:32 41.06765 -73.70450 405 ft 0 kts 62°